Location: Frizzleburg
(41.0764°N, 80.4548°W)
Time: 18:50:27
(UTC+00:00)

SL-4 R/B - Pass Details

Date: 17 November 2019
Orbit: 428 x 667 km, 51.6° (Epoch: 14 December)

Event Time Altitude Azimuth Distance (km) Brightness Sun altitude
Exits shadow 10:22:16 26° 339° (NNW) 1,323 3.7 -20.5°
Maximum altitude 10:24:10 35° 21° (NNE) 1,081 3.6 -20.2°
Drops below altitude 10° 10:28:34 10° 87° (E) 2,076 6.1 -19.4°
Sets 10:31:04 0° 97° (E) 2,969 7.4 -18.9°
